Weather History for Plymouth, MA

Change the Weather History Date:

Sunday, March 4, 2012

  Actual Average Record
Temperature  
Mean Temperature 34 °F -  
Max Temperature 42 °F 42 °F 60 °F (1990)
Min Temperature 26 °F 24 °F 0 °F (1950)
Degree Days  
Heating Degree Days 31    
Moisture  
Dew Point 22 °F    
Average Humidity 60    
Maximum Humidity 85    
Minimum Humidity 43    
Precipitation  
Precipitation 0.00 in - - ()
Sea Level Pressure  
Sea Level Pressure 29.62 in    
Wind  
Wind Speed 3 mph (West)    
Max Wind Speed 7 mph    
Max Gust Speed -    
Visibility 10 miles    
Events      
Averages and records for this station are not official NWS values.
T = Trace of Precipitation, MM = Missing Value Source: NWS Daily Summary

Daily Weather History Graph

Daily Weather History Graph

Search for Another Location

Airport:

Trip Planner

Search our weather history database for the weather conditions in past years. The results will help you decide how hot, cold, wet, or windy it might be!

Date:

Astronomy

Mar. 04, 2012 Rise Set
Actual Time 6:12 AM EST 5:37 PM EST
Civil Twilight 5:44 AM EST 6:05 PM EST
Nautical Twilight 5:12 AM EST 6:37 PM EST
Astronomical Twilight 4:39 AM EST 7:09 PM EST
Moon 1:43 PM EST (3/4) 3:33 AM EST (3/4)
Length of Visible Light 12h 20m
Length of Day
11h 24m
Waxing Gibbous, 83% of the Moon is Illuminated
Mar 4
Waxing Gibbous
Mar 8
Full
Mar 14
Last Quarter
Mar 22
New
Mar 30
First Quarter

Hourly Weather History & Observations

Time (EST) Temp. Windchill Dew Point Humidity Pressure Visibility Wind Dir Wind Speed Gust Speed Precip Events Conditions
12:52 AM 42.1 °F 37.7 °F 24.1 °F 49% 29.62 in 10.0 mi West 6.9 mph - N/A   Clear
1:52 AM 39.0 °F 34.8 °F 23.0 °F 53% 29.65 in 10.0 mi WSW 5.8 mph - N/A   Clear
2:52 AM 39.0 °F 36.8 °F 23.0 °F 53% 29.63 in 10.0 mi WNW 3.5 mph - N/A   Clear
3:52 AM 37.9 °F - 24.1 °F 57% 29.66 in 10.0 mi Calm Calm - N/A   Clear
4:52 AM 34.0 °F - 26.1 °F 73% 29.67 in 10.0 mi Calm Calm - N/A   Clear
5:52 AM 34.0 °F - 27.0 °F 75% 29.68 in 10.0 mi Calm Calm - N/A   Partly Cloudy
6:52 AM 33.1 °F - 28.9 °F 85% 29.69 in 10.0 mi Calm Calm - N/A   Overcast
7:52 AM 35.1 °F - 30.9 °F 85% 29.69 in 10.0 mi Calm Calm - N/A   Overcast
8:52 AM 37.9 °F - 24.1 °F 57% 29.67 in 10.0 mi Calm Calm - N/A   Overcast
9:52 AM 39.0 °F - 19.9 °F 46% 29.64 in 10.0 mi Calm Calm - N/A   Overcast
10:52 AM 39.0 °F 35.7 °F 21.0 °F 49% 29.63 in 10.0 mi WSW 4.6 mph - N/A   Overcast
11:52 AM 39.9 °F 37.8 °F 21.0 °F 47% 29.62 in 10.0 mi WSW 3.5 mph - N/A   Overcast
12:52 PM 39.9 °F 37.8 °F 19.0 °F 43% 29.58 in 10.0 mi SW 3.5 mph - N/A   Mostly Cloudy
1:52 PM 39.9 °F - 19.9 °F 45% 29.56 in 10.0 mi Calm Calm - N/A   Mostly Cloudy
2:52 PM 41.0 °F 37.1 °F 19.9 °F 43% 29.57 in 10.0 mi West 5.8 mph - N/A   Partly Cloudy
3:52 PM 39.9 °F 35.1 °F 21.0 °F 47% 29.55 in 10.0 mi NW 6.9 mph - N/A   Mostly Cloudy
4:52 PM 39.9 °F 36.7 °F 19.9 °F 45% 29.57 in 10.0 mi WNW 4.6 mph - N/A   Mostly Cloudy
5:52 PM 36.0 °F 33.3 °F 19.9 °F 52% 29.58 in 10.0 mi SW 3.5 mph - N/A   Clear
6:52 PM 28.9 °F - 19.9 °F 69% 29.59 in 10.0 mi Calm Calm - N/A   Clear
7:52 PM 27.0 °F - 21.0 °F 78% 29.59 in 10.0 mi Calm Calm - N/A   Clear
8:52 PM 27.0 °F - 21.0 °F 78% 29.60 in 10.0 mi Calm Calm - N/A   Mostly Cloudy
9:52 PM 26.1 °F - 21.0 °F 81% 29.61 in 10.0 mi Calm Calm - N/A   Clear
10:52 PM 30.0 °F 25.2 °F 19.9 °F 66% 29.62 in 10.0 mi WNW 4.6 mph - N/A   Clear
11:52 PM 30.0 °F 24.1 °F 19.0 °F 64% 29.64 in 10.0 mi West 5.8 mph - N/A   Clear